GW7040 Weather Reports


Display with metric or nautical units.
time (UTC)temp
F
wind
direction
speed
MPH
gust
MPH
rain 1hr
in
rain 24hr
in
rain mn
in
humidity
%
barometer
mb
20260505230312 84 136 1.0 1.0 0.00 0.00 0.00 54 1004.3
20260505225808 84 140 1.0 2.0 0.00 0.00 0.00 52 1004.4
20260505225306 85 111 1.0 1.0 0.00 0.00 0.00 48 1004.0
20260505224801 86 81 2.0 2.0 0.00 0.00 0.00 46 1004.2
20260505224259 86 126 1.0 1.0 0.00 0.00 0.00 45 1004.4
20260505223756 88 100 1.0 1.0 0.00 0.00 0.00 42 1004.3
20260505223253 89 64 2.0 2.0 0.00 0.00 0.00 40 1004.1
20260505222748 89 168 1.0 2.0 0.00 0.00 0.00 41 1003.9
20260505222245 89 296 2.0 3.0 0.00 0.00 0.00 40 1003.9
20260505221742 90 107 1.0 2.0 0.00 0.00 0.00 38 1003.8
20260505221239 90 136 1.0 1.0 0.00 0.00 0.00 39 1003.7
20260505220735 92 120 1.0 1.0 0.00 0.00 0.00 38 1003.8
20260505220233 92 142 1.0 1.0 0.00 0.00 0.00 45 1003.8
20260505215731 92 64 0.0 1.0 0.00 0.00 0.00 44 1003.7
20260505215229 92 132 1.0 1.0 0.00 0.00 0.00 45 1003.7
20260505214726 93 118 0.0 0.0 0.00 0.00 0.00 45 1003.7
20260505214223 93 82 2.0 2.0 0.00 0.00 0.00 44 1004.0
20260505213721 93 123 2.0 2.0 0.00 0.00 0.00 44 1003.8
20260505213218 93 136 1.0 1.0 0.00 0.00 0.00 45 1003.7
20260505212714 92 101 1.0 1.0 0.00 0.00 0.00 44 1003.9
20260505212211 92 162 2.0 2.0 0.00 0.00 0.00 46 1003.9
20260505211708 93 169 1.0 2.0 0.00 0.00 0.00 44 1003.9
20260505211205 94 138 2.0 2.0 0.00 0.00 0.00 46 1004.0
20260505210702 93 126 1.0 2.0 0.00 0.00 0.00 46 1004.2
20260505210159 92 132 1.0 1.0 0.00 0.00 0.00 50 1004.1
20260505205656 91 84 2.0 2.0 0.00 0.00 0.00 46 1004.0
20260505205154 91 172 2.0 2.0 0.00 0.00 0.00 47 1004.2
20260505204650 91 147 2.0 3.0 0.00 0.00 0.00 45 1004.4
20260505204148 91 133 1.0 1.0 0.00 0.00 0.00 48 1004.3
20260505203645 90 239 2.0 3.0 0.00 0.00 0.00 48 1004.1
20260505203142 92 113 2.0 2.0 0.00 0.00 0.00 45 1004.6
20260505202637 92 169 1.0 2.0 0.00 0.00 0.00 48 1004.6
20260505202134 91 125 3.0 3.0 0.00 0.00 0.00 46 1004.8
20260505201631 92 127 3.0 3.0 0.00 0.00 0.00 46 1004.5
20260505201129 91 156 3.0 4.0 0.00 0.00 0.00 48 1004.5
20260505200626 91 187 3.0 3.0 0.00 0.00 0.00 49 1004.5
20260505200123 90 127 1.0 1.0 0.00 0.00 0.00 52 1004.6
20260505195619 89 124 3.0 4.0 0.00 0.00 0.00 50 1004.5
20260505195117 89 212 2.0 2.0 0.00 0.00 0.00 50 1004.5
20260505194614 90 177 2.0 2.0 0.00 0.00 0.00 50 1004.6
20260505194109 90 246 3.0 4.0 0.00 0.00 0.00 49 1004.6
20260505193607 89 120 1.0 1.0 0.00 0.00 0.00 51 1004.7
20260505193104 89 118 2.0 2.0 0.00 0.00 0.00 51 1004.5
20260505192603 89 130 2.0 3.0 0.00 0.00 0.00 50 1004.4
20260505192059 88 122 0.0 1.0 0.00 0.00 0.00 51 1004.7
20260505191557 88 183 1.0 1.0 0.00 0.00 0.00 52 1004.5
20260505191055 87 223 1.0 1.0 0.00 0.00 0.00 53 1004.6
20260505190550 87 156 2.0 2.0 0.00 0.00 0.00 53 1004.6
20260505190046 87 109 1.0 1.0 0.00 0.00 0.00 54 1004.6
20260505185543 87 264 2.0 3.0 0.00 0.00 0.00 54 1004.7
20260505185039 87 137 3.0 3.0 0.00 0.00 0.00 53 1004.7
20260505184536 87 229 4.0 4.0 0.00 0.00 0.00 52 1004.8
20260505184033 88 120 1.0 2.0 0.00 0.00 0.00 52 1005.0
20260505183529 88 223 3.0 3.0 0.00 0.00 0.00 51 1004.8
20260505183027 88 131 0.0 1.0 0.00 0.00 0.00 55 1004.8
20260505182523 87 123 1.0 1.0 0.00 0.00 0.00 56 1004.6
20260505182020 87 187 2.0 3.0 0.00 0.00 0.00 54 1004.6
20260505181517 87 122 1.0 1.0 0.00 0.00 0.00 57 1004.8
20260505181014 87 119 2.0 6.0 0.00 0.00 0.00 54 1005.0
20260505180510 88 337 2.0 3.0 0.00 0.00 0.00 57 1004.7
20260505180008 87 117 1.0 1.0 0.00 0.00 0.00 59 1004.9
20260505175502 86 71 2.0 3.0 0.00 0.00 0.00 58 1004.8
20260505175000 85 126 1.0 1.0 0.00 0.00 0.00 60 1004.7
20260505174457 85 164 2.0 3.0 0.00 0.00 0.00 57 1004.8
20260505173953 86 106 2.0 2.0 0.00 0.00 0.00 58 1004.9
20260505173449 86 112 2.0 3.0 0.00 0.00 0.00 58 1004.9
20260505172946 85 96 2.0 2.0 0.00 0.00 0.00 60 1004.5
20260505172445 84 90 2.0 2.0 0.00 0.00 0.00 61 1004.8
20260505171944 83 114 1.0 2.0 0.00 0.00 0.00 63 1004.8
20260505171441 82 263 2.0 2.0 0.00 0.00 0.00 63 1005.1
20260505170937 82 121 2.0 2.0 0.00 0.00 0.00 63 1004.7
20260505170434 82 250 3.0 4.0 0.00 0.00 0.00 64 1004.8
20260505165930 82 220 2.0 2.0 0.00 0.00 0.00 63 1005.1
20260505165426 82 89 1.0 1.0 0.00 0.00 0.00 66 1004.9
20260505164921 81 102 2.0 2.0 0.00 0.00 0.00 66 1005.0
20260505164418 81 112 1.0 1.0 0.00 0.00 0.00 66 1004.7
20260505163916 80 75 1.0 1.0 0.00 0.00 0.00 67 1004.9
20260505163415 80 266 2.0 3.0 0.00 0.00 0.00 66 1005.0
20260505162914 80 278 2.0 2.0 0.00 0.00 0.00 65 1004.8
20260505162409 80 110 1.0 1.0 0.00 0.00 0.00 67 1004.9
20260505161906 81 60 1.0 1.0 0.00 0.00 0.00 66 1004.9
20260505161403 81 1 2.0 2.0 0.00 0.00 0.00 67 1004.8
20260505160900 80 145 2.0 3.0 0.00 0.00 0.00 67 1004.8
20260505160358 80 113 0.0 0.0 0.00 0.00 0.00 68 1004.7
20260505153337 78 314 2.0 2.0 0.00 0.00 0.00 71 1004.2
20260505152835 77 44 1.0 3.0 0.00 0.00 0.00 72 1004.4
20260505152332 77 96 2.0 3.0 0.00 0.00 0.00 73 1004.3
20260505151831 76 105 1.0 2.0 0.00 0.00 0.00 74 1004.5
20260505151329 76 147 1.0 1.0 0.00 0.00 0.00 74 1004.6
20260505150826 76 137 2.0 3.0 0.00 0.00 0.00 74 1004.6
20260505150323 76 254 5.0 6.0 0.00 0.00 0.00 74 1004.5
20260505140252 73 110 2.0 2.0 0.00 0.00 0.00 79 1004.6
20260505130216 72 7 1.0 3.0 0.00 0.00 0.00 81 1004.2
20260505124706 72 80 2.0 4.0 0.00 0.00 0.00 81 1004.4
20260505124203 72 139 1.0 2.0 0.00 0.00 0.00 81 1004.2
20260505123659 72 130 2.0 3.0 0.00 0.00 0.00 82 1004.1
20260505123156 72 143 1.0 1.0 0.00 0.00 0.00 81 1003.9
20260505122652 71 107 3.0 4.0 0.00 0.00 0.00 81 1003.9
20260505122149 71 167 1.0 1.0 0.00 0.00 0.00 81 1003.9
20260505121646 71 28 4.0 6.0 0.00 0.00 0.00 81 1003.8
20260505121143 71 111 1.0 1.0 0.00 0.00 0.00 81 1003.7
20260505120639 71 85 5.0 7.0 0.00 0.00 0.00 82 1003.7
20260505120135 71 135 1.0 1.0 0.00 0.00 0.00 82 1003.8
20260505115629 71 80 2.0 3.0 0.00 0.00 0.00 81 1003.7
20260505115127 71 109 1.0 2.0 0.00 0.00 0.00 81 1003.6
20260505114624 71 170 4.0 4.0 0.00 0.00 0.00 81 1003.8
20260505114120 71 40 2.0 2.0 0.00 0.00 0.00 81 1003.6
20260505113617 71 161 2.0 2.0 0.00 0.00 0.00 81 1003.5
20260505113114 71 77 1.0 1.0 0.00 0.00 0.00 81 1003.6
20260505112610 71 101 2.0 3.0 0.00 0.00 0.00 82 1003.8
20260505112109 71 95 3.0 3.0 0.00 0.00 0.00 82 1003.7
20260505111607 71 117 1.0 1.0 0.00 0.00 0.00 82 1003.6
20260505111103 71 118 1.0 1.0 0.00 0.00 0.00 82 1003.5
20260505110600 71 119 1.0 1.0 0.00 0.00 0.00 82 1003.5
20260505102033 71 116 1.0 1.0 0.00 0.00 0.00 81 1003.3
20260505101531 71 136 2.0 2.0 0.00 0.00 0.00 81 1003.4
20260505101027 71 75 2.0 3.0 0.00 0.00 0.00 81 1003.5
20260505100524 71 242 2.0 4.0 0.00 0.00 0.00 81 1003.4
20260505100021 71 102 3.0 3.0 0.00 0.00 0.00 81 1003.5
20260505095517 71 39 6.0 8.0 0.00 0.00 0.00 81 1003.6
20260505095014 71 108 2.0 3.0 0.00 0.00 0.00 81 1003.4
20260505094510 71 128 1.0 2.0 0.00 0.00 0.00 81 1003.4
20260505094007 71 45 2.0 4.0 0.00 0.00 0.00 81 1003.6
20260505093503 71 134 2.0 3.0 0.00 0.00 0.00 81 1003.9
20260505093001 71 87 2.0 2.0 0.00 0.00 0.00 81 1003.7
20260505092458 71 117 1.0 2.0 0.00 0.00 0.00 81 1004.0
20260505091955 71 192 2.0 2.0 0.00 0.00 0.00 82 1004.0
20260505091453 71 242 1.0 2.0 0.00 0.00 0.00 82 1004.0
20260505090951 71 124 1.0 2.0 0.00 0.00 0.00 82 1003.9
20260505090449 71 108 1.0 1.0 0.00 0.00 0.00 82 1004.0
20260505085946 71 122 2.0 2.0 0.00 0.00 0.00 82 1003.9
20260505085443 71 289 2.0 3.0 0.00 0.00 0.00 82 1004.1
20260505084942 71 129 1.0 1.0 0.00 0.00 0.00 81 1004.1
20260505084440 71 128 1.0 1.0 0.00 0.00 0.00 81 1003.9
20260505083937 71 207 3.0 4.0 0.00 0.00 0.00 81 1003.8
20260505083434 71 125 1.0 2.0 0.00 0.00 0.00 80 1004.0
20260505082931 71 100 3.0 4.0 0.00 0.00 0.00 80 1004.1
20260505082426 71 60 1.0 1.0 0.00 0.00 0.00 80 1003.8
20260505081924 71 105 1.0 2.0 0.00 0.00 0.00 80 1004.1
20260505081420 71 130 2.0 3.0 0.00 0.00 0.00 79 1003.9
20260505080917 71 89 1.0 2.0 0.00 0.00 0.00 79 1004.0
20260505080413 72 117 0.0 0.0 0.00 0.00 0.00 79 1004.0
20260505075908 72 133 2.0 3.0 0.00 0.00 0.00 78 1004.3
20260505075405 72 159 2.0 2.0 0.00 0.00 0.00 78 1004.3
20260505074903 72 126 2.0 3.0 0.00 0.00 0.00 78 1004.3
20260505074400 72 110 1.0 1.0 0.00 0.00 0.00 78 1004.2
20260505073857 72 171 4.0 7.0 0.00 0.00 0.00 78 1004.5
20260505073355 72 84 3.0 3.0 0.00 0.00 0.00 77 1004.7
20260505072852 72 120 2.0 3.0 0.00 0.00 0.00 77 1004.5
20260505072348 72 102 1.0 1.0 0.00 0.00 0.00 77 1004.7
20260505071844 72 113 1.0 1.0 0.00 0.00 0.00 77 1004.8
20260505071340 72 230 3.0 3.0 0.00 0.00 0.00 76 1004.7
20260505070839 72 58 2.0 3.0 0.00 0.00 0.00 76 1004.7
20260505070335 72 167 3.0 7.0 0.00 0.00 0.00 76 1005.0
20260505065830 72 117 2.0 3.0 0.00 0.00 0.00 75 1005.0
20260505065327 72 127 1.0 2.0 0.00 0.00 0.00 75 1005.1
20260505064824 72 42 2.0 2.0 0.00 0.00 0.00 75 1005.2
20260505064321 72 109 1.0 1.0 0.00 0.00 0.00 74 1005.3
20260505063819 72 44 2.0 2.0 0.00 0.00 0.00 74 1005.2
20260505063315 72 114 1.0 2.0 0.00 0.00 0.00 74 1005.2
20260505062812 72 116 3.0 4.0 0.00 0.00 0.00 74 1005.2
20260505062309 72 161 1.0 2.0 0.00 0.00 0.00 74 1005.2
20260505061806 72 92 4.0 6.0 0.00 0.00 0.00 74 1005.1
20260505061304 72 92 2.0 4.0 0.00 0.00 0.00 74 1005.4
20260505060801 72 146 3.0 3.0 0.00 0.00 0.00 74 1005.4
20260505060258 72 109 1.0 2.0 0.00 0.00 0.00 73 1005.3
20260505055754 73 210 3.0 3.0 0.00 0.00 0.00 72 1005.1
20260505055250 73 354 3.0 3.0 0.00 0.00 0.00 72 1005.1
20260505054747 73 56 1.0 1.0 0.00 0.00 0.00 72 1005.3
20260505054245 73 286 1.0 2.0 0.00 0.00 0.00 72 1005.4
20260505053743 73 141 2.0 2.0 0.00 0.00 0.00 71 1005.5
20260505053240 73 88 3.0 4.0 0.00 0.00 0.00 71 1005.7
20260505052737 73 47 2.0 2.0 0.00 0.00 0.00 71 1005.7
20260505052234 73 132 1.0 1.0 0.00 0.00 0.00 71 1005.7
20260505051731 73 133 0.0 1.0 0.00 0.00 0.00 71 1005.8
20260505051229 73 80 1.0 2.0 0.00 0.00 0.00 70 1005.9
20260505050726 73 107 1.0 1.0 0.00 0.00 0.00 70 1005.9
20260505050224 73 108 1.0 1.0 0.00 0.00 0.00 70 1005.9
20260505041654 74 14 1.0 1.0 0.00 0.00 0.00 68 1005.8
20260505041152 74 113 3.0 3.0 0.00 0.00 0.00 68 1005.7
20260505040648 74 133 3.0 6.0 0.00 0.00 0.00 68 1005.7
20260505040146 74 269 2.0 3.0 0.00 0.00 0.00 68 1005.9
20260505035642 74 120 1.0 1.0 0.00 0.00 0.00 67 1006.0
20260505035138 74 89 3.0 4.0 0.00 0.00 0.00 67 1005.8
20260505034635 74 99 3.0 4.0 0.00 0.00 0.00 67 1005.8
20260505034132 74 106 2.0 2.0 0.00 0.00 0.00 67 1005.6
20260505033628 74 135 3.0 4.0 0.00 0.00 0.00 67 1005.8
20260505033127 74 108 1.0 1.0 0.00 0.00 0.00 67 1005.9
20260505032625 74 167 3.0 4.0 0.00 0.00 0.00 67 1006.0
20260505032121 74 107 2.0 1.0 0.00 0.00 0.00 67 1006.0
20260505031618 74 188 2.0 3.0 0.00 0.00 0.00 67 1005.7
20260505031114 74 130 1.0 1.0 0.00 0.00 0.00 66 1006.0
20260505030611 74 112 2.0 2.0 0.00 0.00 0.00 66 1005.8
20260505030106 74 247 1.0 1.0 0.00 0.00 0.00 66 1005.8
20260505025603 74 10 4.0 4.0 0.00 0.00 0.00 66 1005.8
20260505025102 74 140 1.0 1.0 0.00 0.00 0.00 66 1005.9
20260505024559 74 131 2.0 2.0 0.00 0.00 0.00 66 1005.7
20260505024056 75 52 2.0 4.0 0.00 0.00 0.00 66 1005.8
20260505023553 74 134 3.0 3.0 0.00 0.00 0.00 66 1005.8
20260505023051 74 107 1.0 1.0 0.00 0.00 0.00 66 1006.1
20260505022548 75 124 1.0 1.0 0.00 0.00 0.00 66 1006.0
20260505022045 75 124 1.0 2.0 0.00 0.00 0.00 65 1006.1
20260505021542 75 126 3.0 4.0 0.00 0.00 0.00 65 1005.9
20260505021038 75 71 1.0 2.0 0.00 0.00 0.00 64 1006.0
20260505020538 75 165 1.0 2.0 0.00 0.00 0.00 65 1005.9
20260505020035 75 119 1.0 1.0 0.00 0.00 0.00 65 1005.8
20260505015532 75 102 1.0 1.0 0.00 0.00 0.00 63 1006.0
20260505015029 76 105 1.0 1.0 0.00 0.00 0.00 63 1005.8
20260505014526 76 131 2.0 3.0 0.00 0.00 0.00 62 1005.8
20260505014023 76 129 1.0 1.0 0.00 0.00 0.00 62 1005.9
20260505013520 76 80 2.0 3.0 0.00 0.00 0.00 61 1005.9
20260505013018 76 106 0.0 0.0 0.00 0.00 0.00 61 1005.9
20260505012516 76 98 2.0 3.0 0.00 0.00 0.00 61 1005.8
20260505012012 76 102 1.0 1.0 0.00 0.00 0.00 61 1005.8
20260505011508 76 103 2.0 2.0 0.00 0.00 0.00 61 1005.9
20260505011005 76 113 2.0 3.0 0.00 0.00 0.00 60 1005.9
20260505010501 77 70 1.0 1.0 0.00 0.00 0.00 60 1005.9
20260505005957 77 133 1.0 1.0 0.00 0.00 0.00 60 1005.8
20260505005454 77 112 1.0 1.0 0.00 0.00 0.00 59 1005.7
20260505004952 77 213 2.0 3.0 0.00 0.00 0.00 59 1005.6
20260505004448 77 118 1.0 2.0 0.00 0.00 0.00 59 1005.8
20260505003945 77 110 2.0 4.0 0.00 0.00 0.00 58 1005.7
20260505003442 77 99 2.0 2.0 0.00 0.00 0.00 58 1005.8
20260505002938 78 214 2.0 3.0 0.00 0.00 0.00 57 1005.9
20260505002434 78 35 4.0 6.0 0.00 0.00 0.00 57 1005.7
20260505001933 78 114 0.0 0.0 0.00 0.00 0.00 57 1005.8
20260505001430 79 124 1.0 1.0 0.00 0.00 0.00 57 1006.0
20260505000927 79 27 1.0 1.0 0.00 0.00 0.00 56 1006.1
20260505000427 79 47 1.0 1.0 0.00 0.00 0.00 55 1006.0
20260504235922 79 117 3.0 4.0 0.00 0.00 0.00 55 1005.8
20260504235419 79 352 3.0 3.0 0.00 0.00 0.00 55 1005.8
20260504234915 79 338 2.0 2.0 0.00 0.00 0.00 54 1006.0
20260504234413 80 121 1.0 2.0 0.00 0.00 0.00 55 1006.1
20260504233909 79 118 2.0 4.0 0.00 0.00 0.00 54 1006.0
20260504233405 80 162 2.0 3.0 0.00 0.00 0.00 53 1006.3
20260504232902 80 93 2.0 2.0 0.00 0.00 0.00 53 1006.1
20260504232359 80 148 1.0 1.0 0.00 0.00 0.00 53 1006.1
20260504231856 80 134 2.0 2.0 0.00 0.00 0.00 53 1006.1
20260504231352 80 142 3.0 6.0 0.00 0.00 0.00 52 1006.2
20260504230848 82 130 4.0 6.0 0.00 0.00 0.00 51 1006.5